Location: Copper Breaks State Park
(34.1132°N, 99.7492°W)
Time: 11:16:15
(UTC-05:00)

Daily predictions for brighter satellites

Satellite Brightness Start Highest point End
(mag) Time Altitude Azimuth Time Altitude Azimuth Time Altitude Azimuth
SPOT 3 Rocket 3.6 19:55:07 10° SSE 20:00:16 89° E 20:05:27 10° NNW
Cosmos 1842 3.6 20:00:36 10° N 20:04:33 72° W 20:08:27 10° S
Cosmos 1943 Rocket 2.8 20:05:44 10° N 20:10:54 37° ENE 20:16:02 10° SE
EXPRESS MD2 2.9 20:08:20 10° NW 20:10:56 62° NE 20:15:27 10° ESE
H-2A R/B 3.6 20:08:30 10° SE 20:11:39 27° ENE 20:14:51 10° NNE
Cosmos 1825 Rocket 3.8 20:08:52 10° N 20:13:08 47° E 20:17:24 10° SSE
Cosmos 1184 Rocket 2.8 20:10:12 10° N 20:13:35 76° E 20:16:57 10° SSE
BREEZE-M DEB (TANK) 4.5 19:54:33 10° SW 20:15:25 69° SE 20:20:40 10° ENE
Nadezhda 1 Rocket 4.4 20:09:21 10° N 20:15:43 71° W 20:21:57 10° S
Cosmos 2181 Rocket 4.2 20:11:14 10° N 20:17:10 47° E 20:23:01 10° SSE
GPS 2-04 Rocket1 3.1 20:14:36 10° W 20:18:53 68° SSW 20:22:45 12° ESE
FengYun 1-2 T 4.4 20:20:39 10° SSE 20:26:06 53° ENE 20:31:32 10° N
COSMOS 2406 4.2 20:22:48 10° SSE 20:27:14 24° E 20:31:42 10° NE
Tiangong 2 1.3 20:24:58 10° WNW 20:28:09 66° SSW 20:30:36 16° SE
Cosmos 1898 Rocket 3.6 20:23:12 10° N 20:28:18 56° ENE 20:33:22 10° SSE
Cosmos 1814 Rocket 3.9 20:23:58 10° S 20:29:07 69° ESE 20:34:15 10° NNE
Cosmos 304 Rocket 4.3 20:25:10 10° SSE 20:29:29 35° E 20:33:49 10° NE
USA 81 4.2 20:26:57 10° N 20:32:04 49° E 20:37:08 10° SSE
Cosmos 1707 3.0 20:30:09 10° N 20:33:56 45° E 20:37:42 10° SSE
Cosmos 2074 Rocket 4.3 20:28:31 10° SSE 20:34:17 42° E 20:40:03 10° NNE
Cosmos 1340 Rocket 2.7 20:37:38 10° N 20:41:42 78° E 20:45:46 10° SSE
Cosmos 389 Rocket 3.5 20:38:19 10° SSW 20:41:46 50° W 20:45:11 10° N
Cosmos 2150 Rocket 4.3 20:38:37 10° N 20:43:48 50° ENE 20:48:14 14° SE
Cosmos 990 Rocket 4.2 20:39:13 10° N 20:44:12 48° ENE 20:48:07 16° SE
Cosmos 1758 Rocket 3.5 20:39:44 10° N 20:44:14 84° E 20:48:43 10° S
FENGYUN 3A 4.2 20:39:00 10° S 20:44:16 62° W 20:49:35 10° NNW
SL-08 ROCKET BODY 4.2 20:38:34 10° S 20:44:23 76° E 20:50:18 10° N
ALOS 3.2 20:41:18 10° S 20:45:48 50° W 20:50:21 10° NNW
Cosmos 2369 Rocket 2.7 20:40:27 10° NNW 20:46:01 60° WSW 20:51:29 10° S
Envisat 3.9 20:45:42 23° ESE 20:47:29 28° ENE 20:51:45 10° NNE
Cosmos 1356 Rocket 4.2 20:44:10 10° NNE 20:48:02 32° ENE 20:49:19 27° ESE
Cosmos 1726 Rocket 4.0 20:43:54 10° SSW 20:48:15 65° W 20:52:34 10° N
FREGAT/IRIS 3.3 20:45:38 10° S 20:48:36 54° W 20:51:35 10° NNW
OAO 2 Rocket 4.3 20:46:11 10° W 20:51:12 43° SSW 20:54:34 19° SE
Lacrosse 5 2.4 20:47:00 10° NW 20:51:58 57° SW 20:56:38 12° SSE
Cosmos 1656 Rocket 4.3 20:48:20 10° N 20:53:31 36° ENE 20:55:34 27° ESE
Resurs 01 Rocket 2.0 20:54:17 29° ESE 20:55:57 41° ENE 21:00:06 10° N
Yuri Rocket 4.3 20:55:52 10° SW 20:59:15 23° SSE 20:59:38 22° SSE
CZ-2D R/B 3.1 21:01:53 36° SE 21:03:16 63° ENE 21:07:02 10° N
BREEZE-M (TANK) 3.5 20:51:04 10° NW 21:03:34 62° NNE 21:05:13 36° E
SJ-6B 3.5 21:02:54 10° S 21:06:54 57° W 21:10:51 10° NNW
Cosmos 2184 Rocket 3.9 21:01:07 10° S 21:07:21 79° E 21:13:42 10° N
Cosmos 2298 Rocket 4.0 21:02:11 10° NNW 21:07:33 84° WSW 21:12:11 14° SSE
OE (NEXTSAT) 4.5 21:05:08 10° NW 21:08:37 57° NNE 21:08:47 56° NE
GP-B 3.7 21:05:51 10° NNE 21:09:18 37° ENE 21:09:18 37° ENE
In-Cosmos 22 4.4 21:05:23 10° N 21:10:51 48° ENE 21:12:39 36° SE
Cosmos 1378 3.7 21:08:12 10° NNW 21:11:55 57° W 21:15:30 11° S
Cosmos 841 Rocket 3.7 21:07:15 10° SSW 21:12:22 71° WNW 21:17:31 10° NNE
Cosmos 1937 Rocket 3.7 21:10:35 10° NNW 21:15:53 71° WSW 21:20:08 16° S
Cosmos 1610 Rocket 4.5 21:10:32 10° S 21:16:46 65° E 21:23:05 10° NNE
Cosmos 1544 4.4 21:23:50 29° N 21:23:50 29° N 21:25:44 10° N
Meteor 1-24 Rocket 3.7 21:17:04 10° N 21:23:05 78° E 21:26:14 29° SSE
Cosmos 1812 Rocket 4.4 21:26:00 37° NNE 21:26:00 37° NNE 21:28:53 10° NNE
Milstar 3 Cent rocket 2.9 21:22:08 10° SW 21:25:52 29° S 21:25:52 29° S
USA 229 DEB 4.1 21:22:22 10° NW 21:29:31 66° WSW 21:34:28 22° SSE
USA 229 4.1 21:22:29 10° NW 21:29:37 67° WSW 21:34:29 23° SSE
BREEZE-M DEB 2.9 21:25:58 10° NW 21:31:29 70° W 21:31:29 70° W
NOSS 3-1 (A) 4.3 21:26:38 10° NNW 21:34:14 54° NE 21:36:22 44° E
Cosmos 540 Rocket 3.5 21:39:18 10° SSW 21:44:22 74° WNW 21:49:29 10° NNE
NOSS 3-1 (C) 4.0 21:37:18 10° NNW 21:45:10 81° ENE 21:47:50 49° SE
Meteor 2-8 Rocket 4.3 21:39:20 10° N 21:45:30 87° W 21:47:22 48° S
GEOS 3 Rocket 4.3 21:43:18 10° NNE 21:48:33 55° NW 21:53:45 10° SW
MOS 1-B Rocket 4.1 21:45:42 31° S 21:49:05 75° WSW 21:54:58 10° NNW
Spot 2 Rocket 4.1 21:53:04 44° SW 21:54:13 54° W 21:59:10 10° NNW
Cosmos 1943 Rocket 4.2 21:49:55 10° NW 21:54:22 25° WSW 21:58:48 10° SSW
Cosmos 962 Rocket 4.5 21:55:57 69° NE 21:55:57 69° NE 22:01:43 10° N
COSMOS 2406 4.5 22:05:58 10° SW 22:11:14 39° WNW 22:16:35 10° N
Cosmos 2154 Rocket 4.5 22:06:17 12° SSW 22:12:01 57° W 22:18:09 10° N
Cosmos 2341 Rocket 4.3 22:19:03 60° NNW 22:19:03 60° NNW 22:24:11 10° N
Resurs 01 Rocket 4.3 22:31:52 14° WSW 22:32:34 14° W 22:34:57 10° WNW
FALCON 9 R/B 4.1 23:00:09 10° W 23:01:58 29° W 23:01:58 29° W
ATLAS 2AS CENTAUR R/B 4.3 23:08:55 10° NNW 23:13:11 31° N 23:13:11 31° N
